contact:dominique.lefevre@mio.osupytheas.fr, maurice.libes@osupytheas.fr, didier.mallarino@osupytheas.fr
Project:EMSO http://www.emso-fr.org/EMSO-France
Depth: 2436.0 m
Title:EMSO Ligure Ouest : Data MII capteur AQUADOPP
Date,Latitude,Longitude,X_East,Y_North,Z_Up,Amplitude_X,Amplitude_Y,Amplitude_Z,Batterie,SoundSpeed,Heading,Pitch,Roll,Pressure,TIS,Speed,Direction
, degrees North, degrees East, m.s-1, m.s-1,m.s-1, 1, 1, 1, Volt, m.s-1, degree, degree, degree, dbar, degree_C, m.s-1, degree
2023-10-24T00:04:03,42.805,6.029,-0.013,-0.014,-0.052,104.0,104.0,103.0,13.4,1505.2,345.2,-0.8,1.8,2471.644,13.28,0.019,222.9
2023-10-24T00:07:03,42.805,6.029,0.018,-0.017,-0.027,105.0,104.0,102.0,13.4,1505.2,338.9,-0.8,1.8,2471.654,13.29,0.024,133.4
2023-10-24T00:10:03,42.805,6.029,-0.016,0.005,-0.038,103.0,103.0,103.0,13.4,1505.2,355.3,-0.8,1.9,2471.636,13.29,0.016,287.4
2023-10-24T00:13:03,42.805,6.029,0.003,-0.023,-0.033,104.0,104.0,102.0,13.3,1505.2,334.6,-0.7,1.8,2471.63,13.29,0.023,172.6
2023-10-24T00:16:03,42.805,6.029,-0.007,-0.019,-0.056,106.0,105.0,102.0,13.3,1505.2,339.8,-0.8,1.8,2471.607,13.29,0.02,200.2
2023-10-24T00:19:03,42.805,6.029,0.011,-0.037,-0.047,104.0,104.0,102.0,13.3,1505.2,347.6,-0.8,1.8,2471.631,13.29,0.038,163.4
2023-10-24T00:22:03,42.805,6.029,-0.035,-0.018,-0.037,104.0,104.0,103.0,13.4,1505.2,348.8,-0.7,1.8,2471.594,13.29,0.039,242.8
2023-10-24T00:25:03,42.805,6.029,-0.015,-0.026,-0.042,103.0,103.0,103.0,13.3,1505.2,348.6,-0.8,1.8,2471.619,13.29,0.03,210.0
2023-10-24T00:28:03,42.805,6.029,0.005,-0.028,-0.002,105.0,104.0,103.0,13.4,1505.2,348.1,-0.7,1.8,2471.604,13.29,0.028,169.9
2023-10-24T00:31:03,42.805,6.029,-0.01,-0.005,-0.014,104.0,103.0,102.0,13.4,1505.2,351.8,-0.8,1.8,2471.603,13.29,0.011,243.4
2023-10-24T00:34:03,42.805,6.029,-0.029,-0.044,-0.02,106.0,103.0,102.0,13.3,1505.2,354.4,-0.8,1.8,2471.612,13.29,0.052,213.4
2023-10-24T00:37:03,42.805,6.029,-0.005,-0.03,-0.057,103.0,104.0,103.0,13.3,1505.2,337.1,-0.8,1.8,2471.544,13.29,0.03,189.5
2023-10-24T00:40:03,42.805,6.029,0.016,-0.018,-0.03,105.0,103.0,103.0,13.4,1505.2,335.0,-0.7,1.8,2471.583,13.29,0.024,138.4
2023-10-24T00:43:03,42.805,6.029,-0.005,-0.016,-0.019,105.0,103.0,102.0,13.4,1505.2,346.4,-0.8,1.8,2471.622,13.29,0.016,197.4
2023-10-24T00:46:03,42.805,6.029,0.008,-0.021,-0.002,103.0,104.0,102.0,13.4,1505.2,346.6,-0.8,1.8,2471.613,13.29,0.022,159.1
2023-10-24T00:49:03,42.805,6.029,-0.026,-0.029,-0.048,103.0,104.0,102.0,13.4,1505.2,349.9,-0.7,1.8,2471.582,13.29,0.038,221.9
2023-10-24T00:52:03,42.805,6.029,-0.011,-0.017,-0.027,105.0,104.0,103.0,13.3,1505.2,339.5,-0.8,1.8,2471.619,13.29,0.02,212.9
2023-10-24T00:55:03,42.805,6.029,-0.008,-0.006,0.0,104.0,104.0,102.0,13.3,1505.2,339.3,-0.8,1.8,2471.649,13.29,0.01,233.1
2023-10-24T00:58:03,42.805,6.029,-0.019,-0.018,0.009,104.0,104.0,102.0,13.4,1505.2,345.4,-0.8,1.8,2471.61,13.29,0.026,226.5
2023-10-24T01:04:03,42.805,6.029,-0.008,-0.028,-0.043,105.0,104.0,103.0,13.3,1505.2,355.9,-0.8,1.8,2471.609,13.28,0.029,195.9
2023-10-24T01:07:03,42.805,6.029,-0.014,-0.006,-0.038,103.0,103.0,103.0,13.4,1505.2,340.7,-0.8,1.8,2471.665,13.28,0.015,246.8
2023-10-24T01:10:03,42.805,6.029,-0.006,-0.015,-0.021,105.0,102.0,104.0,13.4,1505.2,331.9,-0.8,1.8,2471.662,13.29,0.016,201.8
2023-10-24T01:13:03,42.805,6.029,0.005,-0.029,-0.025,104.0,103.0,102.0,13.4,1505.2,343.9,-0.8,1.9,2471.631,13.29,0.029,170.2
2023-10-24T01:16:03,42.805,6.029,-0.021,-0.026,-0.003,103.0,104.0,102.0,13.4,1505.2,353.3,-0.8,1.9,2471.665,13.29,0.033,218.9
2023-10-24T01:19:03,42.805,6.029,0.013,-0.012,-0.026,104.0,105.0,103.0,13.3,1505.2,337.8,-0.8,1.8,2471.645,13.29,0.017,132.7
2023-10-24T01:22:03,42.805,6.029,-0.025,-0.008,-0.041,104.0,104.0,102.0,13.4,1505.2,349.8,-0.8,1.8,2471.663,13.29,0.026,252.3
2023-10-24T01:25:03,42.805,6.029,0.0,-0.013,-0.009,105.0,103.0,103.0,13.3,1505.2,0.0,-0.8,1.8,2471.628,13.29,0.013,180.0
2023-10-24T01:28:03,42.805,6.029,0.012,-0.028,0.002,104.0,105.0,102.0,13.3,1505.2,337.1,-0.7,1.8,2471.627,13.29,0.03,156.8
2023-10-24T01:31:03,42.805,6.029,-0.002,-0.019,-0.037,103.0,104.0,103.0,13.4,1505.2,338.2,-0.8,1.8,2471.654,13.29,0.019,186.0
2023-10-24T01:34:03,42.805,6.029,0.003,-0.021,-0.033,105.0,103.0,103.0,13.4,1505.2,343.2,-0.7,1.8,2471.616,13.29,0.021,171.9
2023-10-24T01:37:03,42.805,6.029,-0.001,-0.039,-0.017,106.0,103.0,103.0,13.4,1505.2,344.0,-0.8,1.8,2471.582,13.29,0.039,181.5
2023-10-24T01:40:03,42.805,6.029,-0.033,-0.01,-0.01,105.0,103.0,102.0,13.4,1505.2,350.0,-0.8,1.8,2471.618,13.29,0.034,253.1
2023-10-24T01:43:03,42.805,6.029,-0.022,-0.02,-0.053,105.0,103.0,103.0,13.3,1505.2,346.6,-0.8,1.8,2471.61,13.29,0.029,227.7
2023-10-24T01:46:03,42.805,6.029,0.002,-0.041,-0.026,105.0,103.0,102.0,13.3,1505.2,0.0,-0.7,1.8,2471.568,13.29,0.041,177.2
2023-10-24T01:49:03,42.805,6.029,-0.018,-0.023,-0.012,104.0,104.0,103.0,13.3,1505.2,357.9,-0.7,1.8,2471.604,13.29,0.029,218.0
2023-10-24T01:52:03,42.805,6.029,-0.012,-0.034,-0.019,104.0,104.0,104.0,13.4,1505.2,354.8,-0.8,1.8,2471.642,13.29,0.036,199.4
2023-10-24T01:55:03,42.805,6.029,-0.008,-0.06,-0.012,105.0,104.0,102.0,13.4,1505.2,341.3,-0.8,1.8,2471.617,13.29,0.06,187.6
2023-10-24T01:58:03,42.805,6.029,-0.009,-0.047,-0.039,105.0,103.0,102.0,13.3,1505.2,334.6,-0.7,1.8,2471.628,13.29,0.047,190.8
2023-10-24T02:04:03,42.805,6.029,0.001,-0.046,-0.035,104.0,105.0,102.0,13.4,1505.2,341.8,-0.7,1.8,2471.659,13.28,0.046,178.8
2023-10-24T02:07:03,42.805,6.029,-0.012,-0.013,-0.033,105.0,104.0,102.0,13.3,1505.2,338.0,-0.8,1.8,2471.634,13.28,0.017,222.7
2023-10-24T02:10:03,42.805,6.029,0.006,-0.053,-0.021,104.0,105.0,103.0,13.4,1505.2,346.8,-0.8,1.8,2471.675,13.29,0.053,173.5
2023-10-24T02:13:03,42.805,6.029,0.0,-0.028,-0.074,104.0,104.0,102.0,13.4,1505.2,339.5,-0.8,1.8,2471.637,13.29,0.028,180.0
2023-10-24T02:16:03,42.805,6.029,-0.002,-0.027,-0.033,105.0,104.0,103.0,13.4,1505.2,355.9,-0.8,1.8,2471.649,13.29,0.027,184.2
2023-10-24T02:19:03,42.805,6.029,-0.006,-0.017,-0.033,105.0,103.0,103.0,13.4,1505.2,354.6,-0.8,1.8,2471.612,13.29,0.018,199.4
2023-10-24T02:22:03,42.805,6.029,0.0,-0.022,-0.057,106.0,103.0,102.0,13.4,1505.2,356.4,-0.8,1.8,2471.614,13.29,0.022,180.0
2023-10-24T02:25:03,42.805,6.029,-0.011,-0.027,-0.032,105.0,104.0,103.0,13.3,1505.2,336.0,-0.7,1.8,2471.616,13.29,0.029,202.2
2023-10-24T02:28:03,42.805,6.029,-0.022,-0.016,-0.044,106.0,104.0,103.0,13.3,1505.2,341.8,-0.8,1.8,2471.642,13.29,0.027,234.0
2023-10-24T02:31:03,42.805,6.029,-0.033,-0.015,-0.034,104.0,104.0,103.0,13.4,1505.2,349.0,-0.8,1.8,2471.642,13.29,0.036,245.6
2023-10-24T02:34:03,42.805,6.029,-0.03,-0.018,-0.012,105.0,103.0,102.0,13.4,1505.2,349.5,-0.7,1.8,2471.636,13.29,0.034,239.0
2023-10-24T02:37:03,42.805,6.029,-0.001,-0.046,-0.047,105.0,103.0,102.0,13.4,1505.2,349.6,-0.7,1.8,2471.626,13.29,0.046,181.2
2023-10-24T02:40:03,42.805,6.029,-0.013,-0.028,-0.027,104.0,105.0,102.0,13.4,1505.2,331.0,-0.7,1.8,2471.636,13.29,0.03,204.9
2023-10-24T02:43:03,42.805,6.029,0.008,-0.048,-0.007,103.0,103.0,103.0,13.3,1505.2,350.0,-0.8,1.8,2471.646,13.29,0.048,170.5
2023-10-24T02:46:03,42.805,6.029,0.0,-0.018,-0.015,105.0,103.0,104.0,13.4,1505.2,340.1,-0.8,1.8,2471.656,13.29,0.018,180.0
2023-10-24T02:49:03,42.805,6.029,-0.004,-0.012,-0.031,105.0,103.0,102.0,13.4,1505.2,340.4,-0.7,1.8,2471.648,13.29,0.012,198.4
2023-10-24T02:52:03,42.805,6.029,-0.014,-0.015,-0.024,105.0,103.0,103.0,13.3,1505.2,354.9,-0.8,1.8,2471.631,13.29,0.02,223.0
2023-10-24T02:55:03,42.805,6.029,0.016,-0.023,-0.022,105.0,103.0,103.0,13.3,1505.2,358.0,-0.8,1.8,2471.654,13.29,0.028,145.2
2023-10-24T02:58:03,42.805,6.029,0.0,-0.041,-0.025,104.0,105.0,102.0,13.3,1505.2,350.9,-0.8,1.8,2471.649,13.29,0.041,180.0
2023-10-24T03:04:03,42.805,6.029,-0.01,-0.026,-0.021,104.0,103.0,103.0,13.4,1505.2,336.5,-0.7,1.8,2471.67,13.28,0.027,201.0
2023-10-24T03:07:03,42.805,6.029,-0.01,-0.036,-0.04,105.0,103.0,102.0,13.4,1505.2,338.7,-0.8,1.8,2471.678,13.28,0.037,195.5
2023-10-24T03:10:03,42.805,6.029,-0.01,-0.027,-0.034,105.0,104.0,103.0,13.4,1505.2,338.3,-0.7,1.8,2471.643,13.29,0.028,200.3
2023-10-24T03:13:03,42.805,6.029,0.0,0.005,-0.006,106.0,103.0,103.0,13.4,1505.2,358.0,-0.7,1.8,2471.645,13.29,0.005,0.0
2023-10-24T03:16:03,42.805,6.029,-0.01,-0.024,-0.018,105.0,104.0,103.0,13.4,1505.2,356.9,-0.7,1.8,2471.666,13.29,0.026,202.6
2023-10-24T03:19:03,42.805,6.029,-0.013,-0.033,-0.051,104.0,103.0,102.0,13.4,1505.2,0.0,-0.8,1.8,2471.661,13.29,0.035,201.5
2023-10-24T03:22:03,42.805,6.029,-0.019,-0.031,-0.023,105.0,103.0,102.0,13.4,1505.2,352.8,-0.8,1.8,2471.668,13.29,0.036,211.5
2023-10-24T03:25:03,42.805,6.029,-0.013,-0.034,-0.017,106.0,103.0,104.0,13.4,1505.2,334.2,-0.8,1.8,2471.643,13.29,0.036,200.9
2023-10-24T03:28:03,42.805,6.029,-0.006,-0.049,-0.022,104.0,104.0,103.0,13.4,1505.2,345.3,-0.8,1.8,2471.672,13.29,0.049,187.0
2023-10-24T03:31:03,42.805,6.029,-0.025,-0.024,-0.045,105.0,105.0,102.0,13.4,1505.2,339.6,-0.8,1.8,2471.631,13.29,0.034,226.2
2023-10-24T03:34:03,42.805,6.029,-0.003,-0.039,-0.02,104.0,102.0,103.0,13.4,1505.2,353.0,-0.7,1.8,2471.615,13.29,0.039,184.4
2023-10-24T03:37:03,42.805,6.029,-0.01,-0.018,-0.036,104.0,104.0,103.0,13.4,1505.2,357.0,-0.8,1.8,2471.616,13.29,0.02,209.1
2023-10-24T03:40:03,42.805,6.029,0.0,-0.021,-0.057,104.0,104.0,103.0,13.4,1505.2,348.2,-0.8,1.8,2471.605,13.29,0.021,180.0
2023-10-24T03:43:03,42.805,6.029,0.002,-0.036,-0.008,104.0,104.0,102.0,13.4,1505.2,333.4,-0.8,1.8,2471.617,13.29,0.036,176.8
2023-10-24T03:46:03,42.805,6.029,-0.014,-0.054,-0.029,103.0,103.0,102.0,13.3,1505.2,341.5,-0.8,1.8,2471.625,13.29,0.055,194.5
2023-10-24T03:49:03,42.805,6.029,-0.023,-0.023,-0.027,103.0,104.0,103.0,13.4,1505.2,337.3,-0.8,1.8,2471.637,13.29,0.032,225.0
2023-10-24T03:52:03,42.805,6.029,-0.01,-0.003,-0.007,104.0,104.0,102.0,13.4,1505.2,357.2,-0.8,1.8,2471.67,13.29,0.01,253.3
2023-10-24T03:55:03,42.805,6.029,-0.011,-0.03,-0.041,104.0,104.0,103.0,13.4,1505.2,358.1,-0.8,1.8,2471.619,13.29,0.031,200.1
2023-10-24T03:58:03,42.805,6.029,-0.011,-0.006,-0.012,104.0,104.0,103.0,13.4,1505.2,353.8,-0.7,1.9,2471.625,13.29,0.012,241.4
2023-10-24T04:04:03,42.805,6.029,-0.02,-0.029,-0.039,105.0,103.0,103.0,13.4,1505.2,340.2,-0.8,1.8,2471.682,13.28,0.035,214.6
2023-10-24T04:07:03,42.805,6.029,-0.009,-0.036,0.005,105.0,103.0,102.0,13.4,1505.2,339.7,-0.8,1.8,2471.7,13.28,0.037,194.0
2023-10-24T04:10:03,42.805,6.029,-0.006,-0.026,0.011,104.0,104.0,102.0,13.4,1505.2,348.5,-0.8,1.8,2471.648,13.29,0.026,193.0
2023-10-24T04:13:03,42.805,6.029,-0.031,-0.009,-0.038,105.0,105.0,102.0,13.4,1505.2,352.4,-0.8,1.8,2471.668,13.29,0.032,253.8
2023-10-24T04:16:03,42.805,6.029,-0.008,-0.016,-0.031,106.0,105.0,101.0,13.3,1505.2,338.3,-0.8,1.8,2471.652,13.29,0.017,206.6
2023-10-24T04:19:03,42.805,6.029,-0.013,-0.032,-0.03,105.0,103.0,102.0,13.4,1505.2,354.9,-0.8,1.8,2471.674,13.29,0.034,202.1
2023-10-24T04:22:03,42.805,6.029,-0.026,-0.013,-0.038,105.0,103.0,103.0,13.4,1505.2,358.0,-0.8,1.8,2471.624,13.29,0.029,243.4
2023-10-24T04:25:03,42.805,6.029,0.004,-0.014,-0.009,104.0,103.0,102.0,13.3,1505.2,346.8,-0.8,1.8,2471.643,13.29,0.014,164.1
2023-10-24T04:28:03,42.805,6.029,-0.006,-0.025,-0.053,104.0,104.0,103.0,13.4,1505.2,333.4,-0.8,1.8,2471.626,13.29,0.025,193.5
2023-10-24T04:31:03,42.805,6.029,-0.004,-0.016,-0.011,104.0,103.0,102.0,13.4,1505.2,331.8,-0.8,1.8,2471.65,13.29,0.016,194.0
2023-10-24T04:34:03,42.805,6.029,-0.015,-0.027,-0.032,104.0,103.0,104.0,13.4,1505.2,349.0,-0.8,1.8,2471.635,13.29,0.03,209.1
2023-10-24T04:37:03,42.805,6.029,0.0,-0.032,-0.014,105.0,103.0,103.0,13.4,1505.2,345.9,-0.8,1.8,2471.619,13.29,0.032,180.0
2023-10-24T04:40:03,42.805,6.029,-0.002,-0.004,-0.026,104.0,103.0,103.0,13.4,1505.2,349.0,-0.8,1.8,2471.586,13.29,0.004,206.6
2023-10-24T04:43:03,42.805,6.029,-0.025,-0.042,-0.048,104.0,103.0,102.0,13.4,1505.2,345.2,-0.8,1.8,2471.639,13.29,0.048,210.8
2023-10-24T04:46:03,42.805,6.029,-0.007,-0.026,-0.01,105.0,104.0,103.0,13.4,1505.2,353.7,-0.8,1.8,2471.612,13.29,0.026,195.1
2023-10-24T04:49:03,42.805,6.029,-0.011,-0.012,-0.046,104.0,103.0,102.0,13.4,1505.2,338.5,-0.8,1.8,2471.626,13.29,0.016,222.5
2023-10-24T04:52:03,42.805,6.029,-0.009,-0.035,0.005,104.0,104.0,102.0,13.4,1505.2,346.7,-0.8,1.8,2471.625,13.29,0.036,194.4
2023-10-24T04:55:03,42.805,6.029,-0.034,0.002,-0.019,104.0,103.0,102.0,13.4,1505.2,352.8,-0.7,1.8,2471.62,13.29,0.034,273.4
2023-10-24T04:58:03,42.805,6.029,-0.011,-0.016,-0.018,104.0,104.0,103.0,13.4,1505.2,351.7,-0.8,1.8,2471.654,13.29,0.019,214.5
2023-10-24T05:04:03,42.805,6.029,-0.015,0.003,-0.014,104.0,104.0,102.0,13.3,1505.2,339.5,-0.8,1.8,2471.706,13.28,0.015,281.3
2023-10-24T05:07:03,42.805,6.029,-0.024,-0.027,-0.044,105.0,103.0,103.0,13.4,1505.2,337.1,-0.8,1.8,2471.687,13.29,0.036,221.6
2023-10-24T05:10:03,42.805,6.029,-0.038,-0.045,-0.034,104.0,104.0,101.0,13.4,1505.2,338.2,-0.8,1.8,2471.675,13.29,0.058,220.2
2023-10-24T05:13:03,42.805,6.029,-0.023,-0.008,-0.034,105.0,103.0,102.0,13.4,1505.2,352.0,-0.8,1.8,2471.631,13.29,0.024,250.8
2023-10-24T05:16:03,42.805,6.029,-0.018,0.001,-0.04,104.0,104.0,103.0,13.4,1505.2,351.0,-0.8,1.8,2471.668,13.29,0.018,273.2
2023-10-24T05:19:03,42.805,6.029,0.016,-0.009,-0.016,106.0,104.0,103.0,13.3,1505.2,337.5,-0.8,1.8,2471.645,13.29,0.018,119.4
2023-10-24T05:22:03,42.805,6.029,0.002,-0.021,0.001,106.0,105.0,101.0,13.3,1505.2,345.9,-0.8,1.8,2471.63,13.29,0.021,174.6
2023-10-24T05:25:03,42.805,6.029,-0.026,-0.025,-0.023,104.0,104.0,102.0,13.4,1505.2,348.6,-0.8,1.8,2471.631,13.29,0.036,226.1
2023-10-24T05:28:03,42.805,6.029,-0.001,-0.011,-0.019,104.0,104.0,102.0,13.3,1505.2,343.3,-0.8,1.8,2471.59,13.29,0.011,185.2
2023-10-24T05:31:03,42.805,6.029,0.0,-0.026,-0.055,104.0,104.0,102.0,13.3,1505.2,346.4,-0.8,1.8,2471.591,13.29,0.026,180.0
2023-10-24T05:34:03,42.805,6.029,0.005,-0.019,-0.045,104.0,105.0,103.0,13.4,1505.2,342.3,-0.8,1.8,2471.629,13.29,0.019,165.3
2023-10-24T05:37:03,42.805,6.029,-0.008,-0.019,-0.054,103.0,104.0,103.0,13.4,1505.2,354.9,-0.8,1.8,2471.652,13.29,0.02,202.8
2023-10-24T05:40:03,42.805,6.029,-0.02,-0.002,-0.004,104.0,103.0,102.0,13.4,1505.2,355.0,-0.7,1.8,2471.622,13.29,0.02,264.3
2023-10-24T05:43:03,42.805,6.029,-0.014,-0.017,-0.019,105.0,104.0,103.0,13.4,1505.2,358.1,-0.7,1.8,2471.609,13.29,0.022,219.5
2023-10-24T05:46:03,42.805,6.029,-0.001,-0.025,-0.015,104.0,103.0,103.0,13.3,1505.2,345.5,-0.8,1.9,2471.616,13.29,0.025,182.3
2023-10-24T05:49:03,42.805,6.029,0.0,-0.003,-0.012,105.0,104.0,103.0,13.4,1505.2,347.6,-0.8,1.8,2471.647,13.29,0.003,180.0
2023-10-24T05:52:03,42.805,6.029,-0.011,-0.036,-0.026,105.0,104.0,102.0,13.4,1505.2,339.0,-0.8,1.8,2471.618,13.29,0.037,197.0
2023-10-24T05:55:03,42.805,6.029,-0.017,-0.047,-0.033,105.0,104.0,102.0,13.4,1505.2,338.5,-0.8,1.8,2471.629,13.29,0.049,199.9
2023-10-24T05:58:03,42.805,6.029,-0.02,-0.019,-0.031,104.0,104.0,103.0,13.3,1505.2,343.3,-0.8,1.8,2471.592,13.29,0.027,226.5
2023-10-24T06:04:03,42.805,6.029,-0.011,-0.022,-0.044,105.0,104.0,102.0,13.3,1505.2,340.1,-0.7,1.8,2471.676,13.28,0.024,206.6
2023-10-24T06:07:03,42.805,6.029,-0.038,-0.017,-0.045,105.0,105.0,101.0,13.4,1505.2,349.5,-0.8,1.8,2471.671,13.29,0.041,245.9
2023-10-24T06:10:03,42.805,6.029,-0.036,-0.006,-0.044,106.0,103.0,103.0,13.4,1505.2,351.0,-0.7,1.8,2471.604,13.29,0.036,260.5
2023-10-24T06:13:03,42.805,6.029,-0.016,-0.022,-0.032,104.0,103.0,103.0,13.4,1505.2,345.7,-0.8,1.8,2471.64,13.29,0.027,216.0
2023-10-24T06:16:03,42.805,6.029,-0.027,-0.015,-0.035,104.0,104.0,102.0,13.3,1505.2,358.0,-0.8,1.8,2471.604,13.29,0.03,240.9
2023-10-24T06:19:03,42.805,6.029,-0.005,-0.037,-0.031,106.0,104.0,104.0,13.3,1505.2,350.9,-0.8,1.8,2471.599,13.29,0.037,187.7
2023-10-24T06:22:03,42.805,6.029,-0.015,-0.03,-0.038,103.0,103.0,104.0,13.3,1505.2,343.9,-0.7,1.8,2471.608,13.29,0.033,206.6
2023-10-24T06:25:03,42.805,6.029,-0.02,-0.021,-0.048,105.0,104.0,103.0,13.4,1505.2,339.3,-0.8,1.8,2471.595,13.29,0.028,223.6
2023-10-24T06:28:03,42.805,6.029,-0.022,0.002,-0.031,105.0,104.0,102.0,13.4,1505.2,351.3,-0.8,1.8,2471.607,13.29,0.022,275.2
2023-10-24T06:31:03,42.805,6.029,-0.007,-0.021,-0.047,105.0,103.0,103.0,13.4,1505.2,337.8,-0.7,1.8,2471.584,13.29,0.022,198.4
2023-10-24T06:34:03,42.805,6.029,-0.023,0.0,-0.034,104.0,103.0,102.0,13.3,1505.2,357.9,-0.8,1.8,2471.599,13.29,0.023,270.0
2023-10-24T06:37:03,42.805,6.029,-0.017,-0.024,-0.035,104.0,104.0,102.0,13.3,1505.2,352.7,-0.8,1.9,2471.587,13.29,0.029,215.3
2023-10-24T06:40:03,42.805,6.029,0.001,-0.015,-0.008,105.0,103.0,103.0,13.4,1505.2,335.9,-0.7,1.8,2471.59,13.29,0.015,176.2
2023-10-24T06:43:03,42.805,6.029,-0.009,-0.021,-0.02,105.0,104.0,103.0,13.4,1505.2,336.8,-0.8,1.8,2471.58,13.29,0.022,203.2
2023-10-24T06:46:03,42.805,6.029,-0.026,-0.021,-0.045,104.0,103.0,103.0,13.4,1505.2,347.6,-0.7,1.8,2471.584,13.29,0.033,231.1
2023-10-24T06:49:03,42.805,6.029,-0.002,-0.042,-0.039,104.0,105.0,103.0,13.4,1505.2,351.3,-0.8,1.8,2471.553,13.29,0.042,182.7
2023-10-24T06:52:03,42.805,6.029,0.005,-0.022,-0.005,105.0,104.0,102.0,13.4,1505.2,347.0,-0.8,1.8,2471.587,13.29,0.022,167.2
2023-10-24T06:55:03,42.805,6.029,-0.009,-0.007,-0.05,105.0,104.0,102.0,13.3,1505.2,342.3,-0.8,1.8,2471.591,13.29,0.011,232.1
2023-10-24T06:58:03,42.805,6.029,-0.019,-0.008,-0.014,104.0,105.0,103.0,13.3,1505.2,352.4,-0.8,1.8,2471.614,13.29,0.02,247.2
2023-10-24T07:04:03,42.805,6.029,-0.029,-0.028,-0.055,105.0,104.0,103.0,13.4,1505.2,342.3,-0.8,1.8,2471.596,13.29,0.04,226.0
2023-10-24T07:07:03,42.805,6.029,-0.005,-0.018,-0.012,105.0,104.0,102.0,13.3,1505.2,340.4,-0.8,1.8,2471.615,13.29,0.018,195.5
2023-10-24T07:10:03,42.805,6.029,0.001,-0.012,0.005,104.0,104.0,103.0,13.4,1505.2,335.9,-0.8,1.8,2471.638,13.29,0.012,175.2
2023-10-24T07:13:03,42.805,6.029,-0.016,-0.008,-0.014,105.0,105.0,103.0,13.4,1505.2,338.5,-0.8,1.8,2471.612,13.29,0.017,243.4
2023-10-24T07:16:03,42.805,6.029,-0.022,-0.004,-0.023,104.0,104.0,103.0,13.3,1505.2,340.4,-0.8,1.8,2471.577,13.29,0.022,259.7
2023-10-24T07:19:03,42.805,6.029,-0.005,-0.016,-0.01,105.0,104.0,102.0,13.4,1505.2,340.9,-0.7,1.9,2471.617,13.29,0.016,197.4
2023-10-24T07:22:03,42.805,6.029,-0.001,-0.033,-0.033,105.0,103.0,103.0,13.4,1505.2,339.0,-0.8,1.8,2471.632,13.29,0.033,181.7
2023-10-24T07:25:03,42.805,6.029,-0.006,-0.009,-0.054,105.0,103.0,103.0,13.4,1505.2,339.8,-0.8,1.8,2471.607,13.29,0.01,213.7
2023-10-24T07:28:03,42.805,6.029,-0.024,-0.017,-0.048,105.0,103.0,102.0,13.3,1505.2,346.4,-0.8,1.8,2471.593,13.29,0.029,234.7
2023-10-24T07:31:03,42.805,6.029,-0.015,-0.034,-0.042,104.0,105.0,103.0,13.3,1505.2,353.5,-0.8,1.8,2471.578,13.29,0.037,203.8
2023-10-24T07:34:03,42.805,6.029,0.0,-0.019,-0.04,105.0,105.0,104.0,13.4,1505.2,346.2,-0.8,1.8,2471.564,13.29,0.019,180.0
2023-10-24T07:37:03,42.805,6.029,-0.018,-0.019,-0.022,105.0,103.0,103.0,13.3,1505.2,342.8,-0.8,1.8,2471.583,13.29,0.026,223.5
2023-10-24T07:40:03,42.805,6.029,-0.008,-0.006,-0.006,105.0,104.0,103.0,13.4,1505.2,343.1,-0.8,1.8,2471.642,13.29,0.01,233.1
2023-10-24T07:43:03,42.805,6.029,-0.012,-0.017,-0.019,106.0,104.0,103.0,13.4,1505.2,342.7,-0.8,1.8,2471.614,13.29,0.02,215.2
2023-10-24T07:46:03,42.805,6.029,-0.012,-0.008,-0.031,105.0,104.0,105.0,13.4,1505.2,338.5,-0.8,1.8,2471.586,13.29,0.014,236.3
2023-10-24T07:49:03,42.805,6.029,-0.028,-0.006,-0.027,106.0,104.0,103.0,13.3,1505.2,342.7,-0.8,1.8,2471.585,13.29,0.028,257.9
2023-10-24T07:52:03,42.805,6.029,-0.007,-0.001,-0.027,106.0,104.0,103.0,13.4,1505.2,354.9,-0.8,1.8,2471.602,13.29,0.007,261.9
2023-10-24T07:55:03,42.805,6.029,-0.008,-0.017,-0.016,104.0,104.0,102.0,13.4,1505.2,355.4,-0.8,1.8,2471.6,13.29,0.018,205.2
2023-10-24T07:58:03,42.805,6.029,-0.015,-0.033,-0.076,104.0,104.0,103.0,13.3,1505.2,354.9,-0.8,1.8,2471.581,13.29,0.036,204.4
2023-10-24T08:04:03,42.805,6.029,0.002,-0.007,-0.024,105.0,104.0,103.0,13.4,1505.2,344.0,-0.8,1.8,2471.598,13.29,0.007,164.1
2023-10-24T08:07:03,42.805,6.029,0.01,-0.017,-0.042,105.0,104.0,102.0,13.4,1505.2,346.2,-0.8,1.8,2471.62,13.29,0.019,149.5
2023-10-24T08:10:03,42.805,6.029,-0.004,-0.001,-0.016,105.0,104.0,104.0,13.4,1505.2,339.4,-0.8,1.8,2471.591,13.29,0.004,256.0
2023-10-24T08:13:03,42.805,6.029,0.003,-0.033,-0.049,105.0,105.0,103.0,13.4,1505.2,356.8,-0.8,1.8,2471.622,13.29,0.033,174.8
2023-10-24T08:16:03,42.805,6.029,-0.012,0.004,-0.007,105.0,105.0,103.0,13.3,1505.2,357.0,-0.7,1.8,2471.581,13.29,0.012,288.4
2023-10-24T08:19:03,42.805,6.029,-0.022,-0.022,-0.01,105.0,104.0,103.0,13.4,1505.2,356.9,-0.7,1.8,2471.564,13.29,0.031,225.0
2023-10-24T08:22:03,42.805,6.029,0.006,0.004,-0.028,105.0,104.0,103.0,13.4,1505.2,336.8,-0.8,1.8,2471.546,13.29,0.007,56.3
2023-10-24T08:25:03,42.805,6.029,-0.003,-0.011,-0.024,104.0,104.0,103.0,13.3,1505.2,331.9,-0.8,1.8,2471.582,13.29,0.011,195.3
2023-10-24T08:28:03,42.805,6.029,-0.006,-0.012,-0.039,105.0,104.0,103.0,13.3,1505.2,339.1,-0.8,1.8,2471.591,13.29,0.013,206.6
2023-10-24T08:31:03,42.805,6.029,0.0,0.001,-0.019,106.0,104.0,103.0,13.4,1505.2,348.4,-0.8,1.8,2471.566,13.29,0.001,0.0
2023-10-24T08:34:03,42.805,6.029,-0.001,-0.017,-0.062,106.0,104.0,103.0,13.4,1505.2,341.9,-0.8,1.8,2471.543,13.29,0.017,183.4
2023-10-24T08:37:03,42.805,6.029,0.01,-0.002,-0.026,107.0,104.0,103.0,13.4,1505.2,342.5,-0.8,1.8,2471.566,13.29,0.01,101.3
2023-10-24T08:40:03,42.805,6.029,-0.013,-0.016,-0.006,107.0,104.0,103.0,13.4,1505.2,334.9,-0.8,1.8,2471.581,13.29,0.02,219.1
2023-10-24T08:43:03,42.805,6.029,-0.01,-0.017,-0.071,105.0,104.0,103.0,13.3,1505.2,333.0,-0.7,1.8,2471.549,13.29,0.019,210.5
2023-10-24T08:46:03,42.805,6.029,-0.021,0.007,-0.019,105.0,105.0,102.0,13.4,1505.2,342.5,-0.8,1.8,2471.548,13.29,0.022,288.4
2023-10-24T08:49:03,42.805,6.029,-0.015,-0.008,-0.053,104.0,105.0,103.0,13.4,1505.2,351.4,-0.8,1.8,2471.566,13.29,0.017,241.9
2023-10-24T08:52:03,42.805,6.029,-0.005,-0.013,-0.016,106.0,105.0,103.0,13.4,1505.2,350.6,-0.8,1.8,2471.559,13.29,0.013,201.0
2023-10-24T08:55:03,42.805,6.029,-0.002,-0.008,-0.013,106.0,104.0,103.0,13.4,1505.2,352.6,-0.7,1.8,2471.589,13.29,0.008,194.0
2023-10-24T08:58:03,42.805,6.029,-0.01,-0.016,-0.022,105.0,104.0,103.0,13.3,1505.2,340.6,-0.8,1.8,2471.535,13.29,0.018,212.0
2023-10-24T09:04:03,42.805,6.029,-0.025,0.005,-0.007,104.0,104.0,104.0,13.4,1505.2,340.4,-0.8,1.8,2471.613,13.29,0.025,281.3
2023-10-24T09:07:03,42.805,6.029,-0.011,0.011,-0.041,105.0,104.0,104.0,13.4,1505.2,344.0,-0.8,1.8,2471.573,13.29,0.015,315.0
2023-10-24T09:10:03,42.805,6.029,0.005,-0.014,0.041,106.0,105.0,102.0,13.3,1505.2,341.8,-0.8,1.8,2471.611,13.29,0.014,160.4
2023-10-24T09:13:03,42.805,6.029,-0.007,-0.026,-0.017,104.0,105.0,103.0,13.4,1505.2,340.7,-0.8,1.8,2471.583,13.29,0.026,195.1
2023-10-24T09:16:03,42.805,6.029,0.011,0.007,-0.007,105.0,105.0,103.0,13.4,1505.2,345.9,-0.7,1.8,2471.557,13.29,0.013,57.5
2023-10-24T09:19:03,42.805,6.029,-0.004,-0.009,0.009,105.0,104.0,103.0,13.4,1505.2,346.2,-0.8,1.8,2471.588,13.29,0.009,204.0
2023-10-24T09:22:03,42.805,6.029,-0.003,-0.019,-0.035,105.0,106.0,103.0,13.4,1505.2,350.8,-0.8,1.8,2471.6,13.29,0.019,189.0
2023-10-24T09:25:03,42.805,6.029,-0.018,-0.04,0.0,106.0,104.0,102.0,13.4,1505.2,350.0,-0.8,1.8,2471.588,13.29,0.043,204.2
2023-10-24T09:28:03,42.805,6.029,-0.003,-0.022,-0.03,104.0,105.0,103.0,13.4,1505.2,351.6,-0.8,1.8,2471.534,13.29,0.022,187.8
2023-10-24T09:31:03,42.805,6.029,-0.01,-0.024,-0.023,104.0,106.0,103.0,13.3,1505.2,355.0,-0.8,1.8,2471.555,13.29,0.026,202.6
2023-10-24T09:34:03,42.805,6.029,-0.006,-0.012,-0.009,105.0,104.0,105.0,13.4,1505.2,358.0,-0.8,1.8,2471.593,13.29,0.013,206.6
2023-10-24T09:37:03,42.805,6.029,-0.019,-0.007,-0.036,105.0,104.0,102.0,13.4,1505.2,356.9,-0.8,1.8,2471.588,13.29,0.02,249.8
2023-10-24T09:40:03,42.805,6.029,0.012,-0.016,-0.019,106.0,105.0,104.0,13.4,1505.2,352.0,-0.7,1.8,2471.548,13.29,0.02,143.1
2023-10-24T09:43:03,42.805,6.029,-0.014,-0.02,-0.047,105.0,104.0,103.0,13.4,1505.2,354.4,-0.8,1.8,2471.54,13.29,0.024,215.0
2023-10-24T09:46:03,42.805,6.029,-0.027,0.004,-0.034,106.0,104.0,103.0,13.4,1505.2,357.3,-0.7,1.9,2471.544,13.29,0.027,278.4
2023-10-24T09:49:03,42.805,6.029,-0.003,-0.008,-0.04,106.0,103.0,104.0,13.4,1505.2,352.8,-0.8,1.8,2471.558,13.29,0.008,200.6
2023-10-24T09:52:03,42.805,6.029,-0.029,-0.021,-0.042,105.0,104.0,103.0,13.4,1505.2,336.3,-0.8,1.9,2471.59,13.29,0.035,234.1